This is the latest recevied weather packets stored in our database for station/object KF7SOJ. If no packets are shown the sender has not sent any weather packets the latest 10 day(s).
| Time | Temp. | Humidity | Pressure | Rain* | Wind** | Luminosity | Snow |
|---|---|---|---|---|---|---|---|
| 1777775866 | 15° C | 44% | 932 hPa | 0 mm | - | 0 W/m² | - |
| 1777775563 | 15° C | 43% | 931.9 hPa | 0 mm | - | 1 W/m² | - |
| 1777775259 | 15.56° C | 42% | 932.1 hPa | 0 mm | - | 2 W/m² | - |
| 1777774954 | 16.67° C | 39% | 931.9 hPa | 0 mm | - | 3 W/m² | - |
| 1777774651 | 16.67° C | 38% | 931.8 hPa | 0 mm | - | 5 W/m² | - |
| 1777774347 | 16.67° C | 38% | 931.9 hPa | 0 mm | - | 8 W/m² | - |
| 1777774045 | 16.67° C | 37% | 931.9 hPa | 0 mm | - | 11 W/m² | - |
| 1777773742 | 16.67° C | 39% | 931.7 hPa | 0 mm | - | 15 W/m² | - |
| 1777773439 | 16.67° C | 39% | 931.8 hPa | 0 mm | - | 19 W/m² | - |
| 1777773136 | 17.22° C | 39% | 931.8 hPa | 0 mm | - | 24 W/m² | - |
| 1777772831 | 17.22° C | 38% | 931.7 hPa | 0 mm | - | 33 W/m² | - |
| 1777772530 | 17.78° C | 37% | 931.4 hPa | 0 mm | - | 40 W/m² | - |
| 1777772226 | 17.78° C | 37% | 931.6 hPa | 0 mm | - | 53 W/m² | - |
| 1777771924 | 17.78° C | 37% | 931.5 hPa | 0 mm | - | 66 W/m² | - |
| 1777771621 | 18.33° C | 37% | 931.6 hPa | 0 mm | - | 73 W/m² | - |
| 1777771318 | 18.89° C | 37% | 931.5 hPa | 0 mm | - | 83 W/m² | - |
| 1777771014 | 18.89° C | 36% | 931.6 hPa | 0 mm | - | 98 W/m² | - |
| 1777770712 | 18.89° C | 36% | 931.6 hPa | 0 mm | - | 129 W/m² | - |
| 1777770408 | 18.89° C | 36% | 931.4 hPa | 0 mm | - | 107 W/m² | - |
| 1777770105 | 18.89° C | 36% | 931.4 hPa | 0 mm | - | 118 W/m² | - |
| 1777769802 | 18.89° C | 36% | 931.3 hPa | 0 mm | - | 150 W/m² | - |
| 1777769499 | 18.89° C | 38% | 931.3 hPa | 0 mm | - | 131 W/m² | - |
| 1777769195 | 18.89° C | 39% | 931.3 hPa | 0 mm | - | 121 W/m² | - |
| 1777768894 | 18.89° C | 37% | 931.5 hPa | 0 mm | - | 106 W/m² | - |
| 1777768591 | 18.89° C | 37% | 931.4 hPa | 0 mm | - | 104 W/m² | - |
* Rain latest hour (hover to see other rain measurements)
** Current wind speed in m/s (hover to see current wind gust speed)